TimeCDT,TemperatureF,Dew PointF,Humidity,Sea Level PressureIn,VisibilityMPH,Wind Direction,Wind SpeedMPH,Gust SpeedMPH,PrecipitationIn,Events,Conditions,WindDirDegrees,DateUTC
12:13 AM,44.6,35.6,71,30.19,10.0,Calm,Calm,-,N/A,,Clear,0,2012-09-28 05:13:00
12:33 AM,42.8,35.6,76,30.19,10.0,Calm,Calm,-,N/A,,Clear,0,2012-09-28 05:33:00
12:54 AM,42.8,35.6,76,30.19,10.0,Calm,Calm,-,N/A,,Clear,0,2012-09-28 05:54:00
1:13 AM,42.8,37.4,81,30.19,10.0,Calm,Calm,-,N/A,,Clear,0,2012-09-28 06:13:00
1:33 AM,42.8,35.6,76,30.19,10.0,Calm,Calm,-,N/A,,Clear,0,2012-09-28 06:33:00
1:54 AM,42.8,37.4,81,30.19,10.0,Calm,Calm,-,N/A,,Clear,0,2012-09-28 06:54:00
2:13 AM,42.8,37.4,81,30.19,10.0,Calm,Calm,-,N/A,,Clear,0,2012-09-28 07:13:00
2:33 AM,41.0,37.4,87,30.18,10.0,Calm,Calm,-,N/A,,Clear,0,2012-09-28 07:33:00
2:54 AM,42.8,37.4,81,30.18,10.0,Calm,Calm,-,N/A,,Clear,0,2012-09-28 07:54:00
3:13 AM,41.0,37.4,87,30.18,10.0,Calm,Calm,-,N/A,,Clear,0,2012-09-28 08:13:00
3:33 AM,41.0,37.4,87,30.18,10.0,Calm,Calm,-,N/A,,Clear,0,2012-09-28 08:33:00
3:54 AM,41.0,37.4,87,30.18,10.0,Calm,Calm,-,N/A,,Clear,0,2012-09-28 08:54:00
4:13 AM,41.0,37.4,87,30.19,10.0,Calm,Calm,-,N/A,,Clear,0,2012-09-28 09:13:00
4:33 AM,41.0,37.4,87,30.19,10.0,Calm,Calm,-,N/A,,Clear,0,2012-09-28 09:33:00
4:54 AM,39.2,35.6,87,30.19,10.0,Calm,Calm,-,N/A,,Clear,0,2012-09-28 09:54:00
5:13 AM,41.0,37.4,87,30.19,10.0,Calm,Calm,-,N/A,,Clear,0,2012-09-28 10:13:00
5:33 AM,41.0,39.2,93,30.20,10.0,Calm,Calm,-,N/A,,Clear,0,2012-09-28 10:33:00
5:54 AM,41.0,37.4,87,30.20,10.0,Calm,Calm,-,N/A,,Clear,0,2012-09-28 10:54:00
6:13 AM,39.2,37.4,93,30.20,10.0,Calm,Calm,-,N/A,,Clear,0,2012-09-28 11:13:00
6:33 AM,39.2,37.4,93,30.20,10.0,Calm,Calm,-,N/A,,Clear,0,2012-09-28 11:33:00
6:53 AM,39.2,37.4,93,30.20,10.0,Calm,Calm,-,N/A,,Clear,0,2012-09-28 11:53:00
7:13 AM,39.2,37.4,93,30.20,10.0,Calm,Calm,-,N/A,,Clear,0,2012-09-28 12:13:00
7:33 AM,39.2,37.4,93,30.20,10.0,Calm,Calm,-,N/A,,Clear,0,2012-09-28 12:33:00
7:53 AM,39.2,37.4,93,30.21,10.0,Calm,Calm,-,N/A,,Clear,0,2012-09-28 12:53:00
8:14 AM,44.6,42.8,93,30.21,10.0,Calm,Calm,-,N/A,,Clear,0,2012-09-28 13:14:00
8:33 AM,46.4,46.4,100,30.21,10.0,Calm,Calm,-,N/A,,Clear,0,2012-09-28 13:33:00
8:53 AM,51.8,48.2,88,30.22,10.0,Calm,Calm,-,N/A,,Clear,0,2012-09-28 13:53:00
9:14 AM,55.4,46.4,72,30.22,10.0,Calm,Calm,-,N/A,,Clear,0,2012-09-28 14:14:00
9:33 AM,57.2,46.4,67,30.21,10.0,Calm,Calm,-,N/A,,Clear,0,2012-09-28 14:33:00
9:53 AM,60.8,48.2,63,30.21,10.0,Calm,Calm,-,N/A,,Clear,0,2012-09-28 14:53:00
10:14 AM,64.4,48.2,56,30.21,10.0,Calm,Calm,-,N/A,,Clear,0,2012-09-28 15:14:00
10:33 AM,66.2,48.2,52,30.21,10.0,Calm,Calm,-,N/A,,Clear,0,2012-09-28 15:33:00
10:53 AM,68.0,46.4,46,30.21,10.0,Calm,Calm,-,N/A,,Clear,0,2012-09-28 15:53:00
11:13 AM,69.8,46.4,43,30.21,10.0,SSE,3.5,-,N/A,,Clear,150,2012-09-28 16:13:00
11:33 AM,71.6,42.8,35,30.21,10.0,SE,5.8,-,N/A,,Clear,140,2012-09-28 16:33:00
11:53 AM,71.6,39.2,31,30.21,10.0,SE,4.6,-,N/A,,Clear,130,2012-09-28 16:53:00
12:13 PM,73.4,37.4,27,30.21,10.0,SSE,5.8,-,N/A,,Clear,150,2012-09-28 17:13:00
12:33 PM,73.4,35.6,25,30.20,10.0,SE,5.8,-,N/A,,Clear,130,2012-09-28 17:33:00
12:53 PM,75.2,35.6,24,30.20,10.0,SSE,4.6,-,N/A,,Clear,160,2012-09-28 17:53:00
1:13 PM,75.2,33.8,22,30.19,10.0,SSE,3.5,-,N/A,,Clear,160,2012-09-28 18:13:00
1:34 PM,77.0,33.8,21,30.17,10.0,SSE,3.5,-,N/A,,Clear,160,2012-09-28 18:34:00
1:53 PM,78.8,33.8,20,30.16,10.0,SW,3.5,-,N/A,,Clear,230,2012-09-28 18:53:00
2:13 PM,78.8,33.8,20,30.16,10.0,West,3.5,-,N/A,,Clear,260,2012-09-28 19:13:00
2:33 PM,78.8,30.2,17,30.16,10.0,SSW,4.6,-,N/A,,Clear,210,2012-09-28 19:33:00
2:53 PM,80.6,30.2,16,30.15,10.0,West,6.9,-,N/A,,Clear,270,2012-09-28 19:53:00
3:13 PM,80.6,28.4,15,30.14,10.0,WSW,6.9,-,N/A,,Clear,240,2012-09-28 20:13:00
3:33 PM,80.6,28.4,15,30.14,10.0,WSW,4.6,-,N/A,,Clear,240,2012-09-28 20:33:00
3:53 PM,78.8,28.4,16,30.13,10.0,WSW,4.6,-,N/A,,Clear,250,2012-09-28 20:53:00
4:13 PM,78.8,28.4,16,30.12,10.0,WSW,4.6,-,N/A,,Clear,240,2012-09-28 21:13:00
4:32 PM,80.6,30.2,16,30.12,10.0,Calm,Calm,-,N/A,,Clear,0,2012-09-28 21:32:00
4:53 PM,80.6,30.2,16,30.12,10.0,WSW,3.5,-,N/A,,Clear,240,2012-09-28 21:53:00
5:13 PM,78.8,28.4,16,30.11,10.0,WSW,3.5,-,N/A,,Clear,240,2012-09-28 22:13:00
5:33 PM,78.8,28.4,16,30.11,10.0,WSW,4.6,-,N/A,,Clear,250,2012-09-28 22:33:00
6:13 PM,73.4,30.2,20,30.11,10.0,Calm,Calm,-,N/A,,Clear,0,2012-09-28 23:13:00
6:33 PM,69.8,33.8,27,30.11,10.0,Calm,Calm,-,N/A,,Clear,0,2012-09-28 23:33:00
6:53 PM,66.2,33.8,30,30.11,10.0,Calm,Calm,-,N/A,,Clear,0,2012-09-28 23:53:00
7:13 PM,62.6,35.6,37,30.11,10.0,Calm,Calm,-,N/A,,Clear,0,2012-09-29 00:13:00
7:33 PM,60.8,35.6,39,30.11,10.0,Calm,Calm,-,N/A,,Clear,0,2012-09-29 00:33:00
7:53 PM,59.0,35.6,42,30.11,10.0,Calm,Calm,-,N/A,,Clear,0,2012-09-29 00:53:00
8:13 PM,57.2,35.6,44,30.11,10.0,Calm,Calm,-,N/A,,Clear,0,2012-09-29 01:13:00
8:33 PM,57.2,37.4,48,30.12,10.0,Calm,Calm,-,N/A,,Clear,0,2012-09-29 01:33:00
8:53 PM,55.4,37.4,51,30.11,10.0,Calm,Calm,-,N/A,,Clear,0,2012-09-29 01:53:00
9:13 PM,59.0,35.6,42,30.11,10.0,Calm,Calm,-,N/A,,Clear,0,2012-09-29 02:13:00
9:33 PM,59.0,35.6,42,30.11,10.0,Calm,Calm,-,N/A,,Clear,0,2012-09-29 02:33:00
9:53 PM,59.0,35.6,42,30.11,10.0,Calm,Calm,-,N/A,,Clear,0,2012-09-29 02:53:00
10:13 PM,57.2,33.8,41,30.11,10.0,Calm,Calm,-,N/A,,Clear,0,2012-09-29 03:13:00
10:33 PM,55.4,33.8,44,30.11,10.0,Calm,Calm,-,N/A,,Clear,0,2012-09-29 03:33:00
10:53 PM,55.4,35.6,47,30.11,10.0,Calm,Calm,-,N/A,,Clear,0,2012-09-29 03:53:00
11:13 PM,55.4,35.6,47,30.11,10.0,Calm,Calm,-,N/A,,Clear,0,2012-09-29 04:13:00
11:33 PM,57.2,35.6,44,30.11,10.0,Calm,Calm,-,N/A,,Clear,0,2012-09-29 04:33:00
11:53 PM,57.2,33.8,41,30.11,10.0,Calm,Calm,-,N/A,,Clear,0,2012-09-29 04:53:00